EN

Hourly Weather Viedma

Today, 7 March, Sunday

Time Temperature Precipitation Wind Pressure Humidity
00:00 +29°C° 0 mm 7 mps 751 mmHg 38%
01:00 +29°C° 0 mm 7 mps 750 mmHg 38%
02:00 +29°C° 0 mm 8 mps 750 mmHg 39%
03:00 +28°C° 0 mm 7 mps 750 mmHg 40%
04:00 +28°C° 0 mm 7 mps 750 mmHg 42%
05:00 +27°C° 0 mm 6 mps 750 mmHg 43%
06:00 +27°C° 0 mm 6 mps 751 mmHg 42%
07:00 +28°C° 0 mm 6 mps 751 mmHg 40%
08:00 +28°C° 0 mm 6 mps 751 mmHg 38%
09:00 +29°C° 0 mm 5 mps 751 mmHg 35%
10:00 +30°C° 0 mm 4 mps 751 mmHg 31%
11:00 +33°C° 0 mm 3 mps 752 mmHg 28%
12:00 +34°C° 0 mm 5 mps 751 mmHg 25%
13:00 +35°C° 0 mm 6 mps 751 mmHg 23%
14:00 +37°C° 0 mm 8 mps 751 mmHg 21%
15:00 +35°C° 0 mm 8 mps 751 mmHg 21%
16:00 +34°C° 0 mm 8 mps 751 mmHg 22%
17:00 +34°C° 0 mm 8 mps 751 mmHg 22%
18:00 +32°C° 0 mm 7 mps 751 mmHg 23%
19:00 +30°C° 0 mm 5 mps 751 mmHg 23%
20:00 +29°C° 0 mm 4 mps 752 mmHg 23%
21:00 +27°C° 0 mm 7 mps 753 mmHg 30%
22:00 +24°C° 0 mm 9 mps 754 mmHg 37%
23:00 +22°C° 0 mm 12 mps 755 mmHg 44%

Tomorrow, 8 March, Monday

Time Temperature Precipitation Wind Pressure Humidity
00:00 +21°C° 0 mm 11 mps 756 mmHg 46%
01:00 +19°C° 0 mm 9 mps 757 mmHg 48%
02:00 +18°C° 0 mm 8 mps 758 mmHg 51%
03:00 +17°C° 0 mm 7 mps 758 mmHg 52%
04:00 +17°C° 0 mm 5 mps 759 mmHg 53%
05:00 +17°C° 0 mm 4 mps 760 mmHg 54%
06:00 +18°C° 0 mm 3 mps 761 mmHg 49%
07:00 +18°C° 0 mm 3 mps 761 mmHg 45%
08:00 +19°C° 0 mm 3 mps 762 mmHg 40%
09:00 +20°C° 0 mm 3 mps 762 mmHg 34%
10:00 +21°C° 0 mm 2 mps 762 mmHg 29%
11:00 +23°C° 0 mm 2 mps 763 mmHg 24%
12:00 +24°C° 0 mm 2 mps 762 mmHg 22%
13:00 +25°C° 0 mm 2 mps 762 mmHg 20%
14:00 +26°C° 0 mm 2 mps 761 mmHg 19%
15:00 +25°C° 0 mm 3 mps 761 mmHg 24%
16:00 +23°C° 0 mm 4 mps 760 mmHg 29%
17:00 +23°C° 0 mm 6 mps 760 mmHg 34%
18:00 +21°C° 0 mm 6 mps 760 mmHg 41%
19:00 +19°C° 0 mm 6 mps 760 mmHg 48%
20:00 +17°C° 0 mm 7 mps 760 mmHg 55%
21:00 +16°C° 0 mm 7 mps 760 mmHg 56%
22:00 +16°C° 0 mm 7 mps 760 mmHg 57%
23:00 +16°C° 0 mm 7 mps 760 mmHg 59%

Day after tomorrow, 9 March, Tuesday

Time Temperature Precipitation Wind Pressure Humidity
00:00 +16°C° 0 mm 7 mps 759 mmHg 61%
01:00 +16°C° 0 mm 7 mps 759 mmHg 63%
02:00 +16°C° 0 mm 7 mps 758 mmHg 65%
03:00 +15°C° 0 mm 7 mps 758 mmHg 67%
04:00 +15°C° 0 mm 7 mps 758 mmHg 70%
05:00 +15°C° 0 mm 7 mps 758 mmHg 73%
06:00 +16°C° 0 mm 7 mps 757 mmHg 66%
07:00 +16°C° 0 mm 7 mps 757 mmHg 60%
08:00 +17°C° 0 mm 7 mps 757 mmHg 53%
09:00 +20°C° 0 mm 7 mps 756 mmHg 47%
10:00 +23°C° 0 mm 7 mps 756 mmHg 41%
11:00 +27°C° 0 mm 8 mps 755 mmHg 34%
12:00 +29°C° 0 mm 8 mps 755 mmHg 32%
13:00 +32°C° 0 mm 8 mps 754 mmHg 31%
14:00 +34°C° 0 mm 9 mps 753 mmHg 29%
15:00 +34°C° 0 mm 9 mps 752 mmHg 29%
16:00 +34°C° 0 mm 9 mps 751 mmHg 30%
17:00 +34°C° 0 mm 9 mps 750 mmHg 31%
18:00 +32°C° 0 mm 9 mps 750 mmHg 37%
19:00 +29°C° 0 mm 9 mps 750 mmHg 42%
20:00 +27°C° 0 mm 9 mps 749 mmHg 48%
21:00 +28°C° 0 mm 9 mps 749 mmHg 43%
22:00 +29°C° 0 mm 9 mps 749 mmHg 39%
23:00 +29°C° 0 mm 9 mps 749 mmHg 34%

10 March, Wednesday

Time Temperature Precipitation Wind Pressure Humidity
00:00 +29°C° 0 mm 9 mps 748 mmHg 31%
01:00 +29°C° 0 mm 9 mps 748 mmHg 28%
02:00 +29°C° 0 mm 9 mps 748 mmHg 25%
03:00 +29°C° 0 mm 8 mps 748 mmHg 27%
04:00 +28°C° 0 mm 7 mps 748 mmHg 29%
05:00 +28°C° 0 mm 5 mps 748 mmHg 31%
06:00 +28°C° 0 mm 5 mps 749 mmHg 28%
07:00 +28°C° 0 mm 5 mps 749 mmHg 26%
08:00 +28°C° 0 mm 5 mps 749 mmHg 23%
09:00 +29°C° 0 mm 5 mps 750 mmHg 24%
10:00 +30°C° 0 mm 6 mps 750 mmHg 24%
11:00 +30°C° 0 mm 6 mps 750 mmHg 24%
12:00 +32°C° 0 mm 7 mps 750 mmHg 24%
13:00 +33°C° 0 mm 7 mps 750 mmHg 24%
14:00 +33°C° 0 mm 7 mps 750 mmHg 24%
15:00 +33°C° 0 mm 7 mps 750 mmHg 24%
16:00 +32°C° 0 mm 6 mps 750 mmHg 24%
17:00 +32°C° 0 mm 6 mps 750 mmHg 24%
18:00 +30°C° 0 mm 5 mps 750 mmHg 24%
19:00 +29°C° 0 mm 5 mps 750 mmHg 24%
20:00 +29°C° 0 mm 4 mps 750 mmHg 24%
21:00 +28°C° 0 mm 5 mps 751 mmHg 25%
22:00 +27°C° 0 mm 6 mps 751 mmHg 25%
23:00 +26°C° 0 mm 6 mps 752 mmHg 25%

11 March, Thursday

Time Temperature Precipitation Wind Pressure Humidity
00:00 +24°C° 0 mm 6 mps 752 mmHg 29%
01:00 +22°C° 0 mm 6 mps 752 mmHg 32%
02:00 +21°C° 0 mm 5 mps 752 mmHg 36%
03:00 +20°C° 0 mm 4 mps 753 mmHg 40%
04:00 +19°C° 0 mm 4 mps 753 mmHg 43%
05:00 +18°C° 0 mm 3 mps 754 mmHg 46%
06:00 +19°C° 0 mm 4 mps 754 mmHg 43%
07:00 +20°C° 0 mm 4 mps 755 mmHg 39%
08:00 +21°C° 0 mm 5 mps 755 mmHg 36%
09:00 +22°C° 0 mm 6 mps 756 mmHg 32%
10:00 +23°C° 0 mm 6 mps 756 mmHg 28%
11:00 +24°C° 0 mm 6 mps 756 mmHg 25%
12:00 +24°C° 0 mm 6 mps 756 mmHg 24%
13:00 +26°C° 0 mm 6 mps 756 mmHg 23%
14:00 +26°C° 0 mm 6 mps 756 mmHg 23%
15:00 +26°C° 0 mm 6 mps 756 mmHg 23%
16:00 +26°C° 0 mm 5 mps 756 mmHg 23%
17:00 +26°C° 0 mm 5 mps 755 mmHg 23%
18:00 +23°C° 0 mm 4 mps 756 mmHg 27%
19:00 +22°C° 0 mm 4 mps 756 mmHg 32%
20:00 +20°C° 0 mm 3 mps 756 mmHg 37%
21:00 +19°C° 0 mm 4 mps 757 mmHg 43%
22:00 +19°C° 0 mm 4 mps 757 mmHg 48%
23:00 +19°C° 0 mm 4 mps 757 mmHg 54%

12 March, Friday

Time Temperature Precipitation Wind Pressure Humidity
00:00 +18°C° 0 mm 4 mps 757 mmHg 57%
01:00 +18°C° 0 mm 4 mps 757 mmHg 60%
02:00 +18°C° 0 mm 3 mps 757 mmHg 63%
03:00 +17°C° 0 mm 3 mps 757 mmHg 66%
04:00 +17°C° 0 mm 3 mps 757 mmHg 69%
05:00 +17°C° 0 mm 3 mps 758 mmHg 72%
06:00 +18°C° 0 mm 3 mps 758 mmHg 66%
07:00 +19°C° 0 mm 3 mps 758 mmHg 60%
08:00 +20°C° 0 mm 2 mps 759 mmHg 54%
09:00 +23°C° 0 mm 2 mps 759 mmHg 46%
10:00 +25°C° 0 mm 2 mps 759 mmHg 38%
11:00 +27°C° 0 mm 2 mps 759 mmHg 30%
12:00 +28°C° 0 mm 2 mps 759 mmHg 28%
13:00 +29°C° 0 mm 3 mps 759 mmHg 26%
14:00 +30°C° 0 mm 3 mps 759 mmHg 24%
15:00 +29°C° 0 mm 4 mps 759 mmHg 28%
16:00 +27°C° 0 mm 5 mps 758 mmHg 32%
17:00 +26°C° 0 mm 5 mps 758 mmHg 35%
18:00 +25°C° 0 mm 5 mps 758 mmHg 42%
19:00 +23°C° 0 mm 4 mps 758 mmHg 49%
20:00 +21°C° 0 mm 3 mps 758 mmHg 56%
21:00 +21°C° 0 mm 3 mps 758 mmHg 58%
22:00 +20°C° 0 mm 3 mps 759 mmHg 61%
23:00 +20°C° 0 mm 3 mps 759 mmHg 64%
Show more

We Need Your Consent

Meteoprog and our Service Providers may store and access personal data such as cookies, device identifiers or other similar technologies on your device and process such data to personalise content and ads, as well as provide social media features and to analyse the traffic.

  • Store and/or access information on your device

    Cookies, device identifiers or other information can be stored or accessed on your device for the purposes indicated above.

  • Personalised ads and content, ad and content measurement, audience insights, and products development

    Ads and content can be personalised based on a profile. More data can be added to better personalise ads and content. Ad and content performance can be measured. Insights about the audience who saw the ads and content can be derived. Such data can be used to develop or improve user’s experience, systems and software.

By clicking ‘I Agree’ you will allow the use of indicated cookies, device identifiers, web beacons or other similar technologies. Your settings can be changed in the browser on your device.

For certain purposes, legitimate interests may be relied on, rather than consent. You can read more about this in our Privacy and Cookie Policy.